Gonzales, LA

4:34 AM CST on January 18, 2018 (GMT -0600)
Gonzales

Weather History for KL38 - March, 2013

Change the Weather History Date:

Tuesday, March 26, 2013

  Actual Average (KBTR) Record (KBTR)
Temperature  
Mean Temperature 45 °F -  
Max Temperature 55 °F 70 °F 89 °F (1921)
Min Temperature 35 °F 49 °F 32 °F (1955)
Degree Days  
Heating Degree Days 20    
Moisture  
Dew Point 25 °F    
Average Humidity 45    
Maximum Humidity 78    
Minimum Humidity 29    
Precipitation  
Precipitation 0.00 in - - ()
Sea Level Pressure  
Sea Level Pressure 30.36 in    
Wind  
Wind Speed 5 mph (NNW)    
Max Wind Speed 13 mph    
Max Gust Speed 23 mph    
Visibility 10 miles    
Events      
Averages and records for this station are not official NWS values.
T = Trace of Precipitation, MM = Missing Value Source: NWS Daily Summary

Daily Weather History Graph

Daily Weather History Graph

Search for Another Location

Airport or City:

Trip Planner

Search our weather history database for the weather conditions in past years. The results will help you decide how hot, cold, wet, or windy it might be!

Date:

Astronomy

Mar. 26, 2013 Rise Set
Actual Time 6:59 AM CDT 7:19 PM CDT
Civil Twilight 6:35 AM CDT 7:43 PM CDT
Nautical Twilight 6:07 AM CDT 8:11 PM CDT
Astronomical Twilight 5:39 AM CDT 8:39 PM CDT
Moon 6:54 PM CDT (3/26) 6:15 AM CDT (3/26)
Length of Visible Light 13h 07m
Length of Day
12h 19m
Waxing Gibbous, 99% of the Moon is Illuminated
Mar 26
Waxing Gibbous
Mar 27
Full
Apr 2
Last Quarter
Apr 10
New
Apr 18
First Quarter

Hourly Weather History & Observations

Time (CDT) Temp. Windchill Dew Point Humidity Pressure Visibility Wind Dir Wind Speed Gust Speed Precip Events Conditions
12:15 AM 47.1 °F - 23.4 °F 39% 30.29 in 10.0 mi NNW 5.8 mph - N/A   Clear
12:35 AM 47.1 °F - 23.4 °F 39% 30.29 in 10.0 mi NNW 5.8 mph - N/A   Clear
12:55 AM 45.7 °F 41.5 °F 23.7 °F 42% 30.29 in 10.0 mi NNW 8.1 mph - N/A   Clear
1:15 AM 45.5 °F 44.2 °F 23.9 °F 43% 30.30 in 10.0 mi NNW 3.5 mph - N/A   Clear
1:35 AM 44.6 °F - 24.4 °F 45% 30.30 in 10.0 mi Calm Calm - N/A   Clear
1:55 AM 43.7 °F - 25.2 °F 48% 30.31 in 10.0 mi Calm Calm - N/A   Clear
2:15 AM 42.8 °F 40.1 °F 25.9 °F 51% 30.31 in 10.0 mi NNW 4.6 mph - N/A   Clear
2:35 AM 42.6 °F 39.0 °F 25.2 °F 50% 30.31 in 10.0 mi NNW 5.8 mph - N/A   Clear
2:55 AM 42.8 °F 39.3 °F 24.8 °F 49% 30.32 in 10.0 mi NNW 5.8 mph - N/A   Clear
3:15 AM 41.9 °F 37.5 °F 25.0 °F 51% 30.32 in 10.0 mi North 6.9 mph - N/A   Clear
3:35 AM 41.9 °F 39.0 °F 24.8 °F 51% 30.33 in 10.0 mi North 4.6 mph - N/A   Clear
3:55 AM 41.2 °F 37.3 °F 24.8 °F 52% 30.33 in 10.0 mi North 5.8 mph - N/A   Clear
4:15 AM 39.7 °F 35.6 °F 25.3 °F 56% 30.33 in 10.0 mi NNW 5.8 mph - N/A   Clear
4:35 AM 40.1 °F 38.0 °F 25.5 °F 56% 30.34 in 10.0 mi North 3.5 mph - N/A   Clear
4:55 AM 39.9 °F 35.1 °F 25.2 °F 56% 30.35 in 10.0 mi North 6.9 mph - N/A   Clear
5:15 AM 39.7 °F 36.5 °F 24.8 °F 55% 30.35 in 10.0 mi North 4.6 mph - N/A   Clear
5:35 AM 39.0 °F 34.8 °F 25.2 °F 58% 30.36 in 10.0 mi North 5.8 mph - N/A   Clear
5:55 AM 38.1 °F 33.7 °F 25.7 °F 61% 30.36 in 10.0 mi North 5.8 mph - N/A   Clear
6:15 AM 37.6 °F 35.1 °F 26.1 °F 63% 30.36 in 10.0 mi North 3.5 mph - N/A   Clear
6:35 AM 37.0 °F - 26.2 °F 65% 30.37 in 10.0 mi Calm Calm - N/A   Clear
6:55 AM 36.5 °F - 26.6 °F 67% 30.38 in 10.0 mi Calm Calm - N/A   Clear
7:15 AM 35.6 °F - 27.5 °F 72% 30.39 in 10.0 mi Calm Calm - N/A   Clear
7:35 AM 35.2 °F - 28.9 °F 78% 30.39 in 10.0 mi Calm Calm - N/A   Clear
7:55 AM 36.3 °F - 29.5 °F 76% 30.40 in 10.0 mi Calm Calm - N/A   Clear
8:15 AM 39.7 °F - 26.4 °F 59% 30.41 in 10.0 mi Calm Calm - N/A   Clear
8:35 AM 41.0 °F - 24.3 °F 51% 30.42 in 10.0 mi Calm Calm - N/A   Clear
8:55 AM 42.8 °F 38.0 °F 22.3 °F 44% 30.42 in 10.0 mi NNW 8.1 mph - N/A   Clear
9:15 AM 43.0 °F 37.2 °F 19.4 °F 39% 30.42 in 10.0 mi North 10.4 mph 17.3 mph N/A   Clear
9:35 AM 44.4 °F 38.6 °F 20.5 °F 39% 30.42 in 10.0 mi NNW 11.5 mph - N/A   Clear
9:55 AM 44.6 °F 40.2 °F 19.6 °F 37% 30.42 in 10.0 mi NNW 8.1 mph 16.1 mph N/A   Clear
10:15 AM 45.0 °F 40.6 °F 19.4 °F 36% 30.42 in 10.0 mi NNW 8.1 mph - N/A   Clear
10:35 AM 45.9 °F 40.8 °F 19.6 °F 35% 30.42 in 10.0 mi NW 10.4 mph 16.1 mph N/A   Clear
10:55 AM 47.1 °F - 20.8 °F 35% 30.42 in 10.0 mi NW 10.4 mph - N/A   Clear
11:15 AM 47.3 °F - 20.7 °F 35% 30.42 in 10.0 mi NNW 9.2 mph 16.1 mph N/A   Clear
11:35 AM 48.0 °F - 20.7 °F 34% 30.41 in 10.0 mi NNE 9.2 mph - N/A   Clear
11:55 AM 48.2 °F - 21.9 °F 36% 30.40 in 10.0 mi NNW 8.1 mph 18.4 mph N/A   Clear
12:15 PM 48.9 °F - 22.5 °F 35% 30.40 in 10.0 mi West 6.9 mph 17.3 mph N/A   Clear
12:35 PM 49.8 °F - 23.5 °F 36% 30.39 in 10.0 mi NNW 9.2 mph - N/A   Clear
12:55 PM 50.4 °F - 23.4 °F 35% 30.39 in 10.0 mi WNW 9.2 mph 20.7 mph N/A   Clear
1:15 PM 51.3 °F - 23.7 °F 34% 30.38 in 10.0 mi NNW 9.2 mph 18.4 mph N/A   Clear
1:35 PM 51.4 °F - 23.5 °F 34% 30.37 in 10.0 mi NNW 8.1 mph 17.3 mph N/A   Clear
1:55 PM 52.0 °F - 23.9 °F 34% 30.36 in 10.0 mi NW 5.8 mph 23.0 mph N/A   Clear
2:15 PM 52.7 °F - 23.4 °F 32% 30.36 in 10.0 mi NW 12.7 mph 19.6 mph N/A   Clear
2:35 PM 52.9 °F - 23.7 °F 32% 30.35 in 10.0 mi NW 10.4 mph 19.6 mph N/A   Clear
2:55 PM 53.4 °F - 24.4 °F 33% 30.34 in 10.0 mi North 5.8 mph 20.7 mph N/A   Clear
3:15 PM 55.2 °F - 25.2 °F 31% 30.33 in 10.0 mi NW 10.4 mph 19.6 mph N/A   Clear
3:35 PM 54.5 °F - 24.8 °F 32% 30.33 in 10.0 mi NW 11.5 mph 18.4 mph N/A   Clear
3:55 PM 54.3 °F - 24.4 °F 31% 30.32 in 10.0 mi WNW 9.2 mph 17.3 mph N/A   Clear
4:15 PM 54.3 °F - 24.6 °F 32% 30.31 in 10.0 mi WNW 8.1 mph - N/A   Clear
4:35 PM 54.7 °F - 24.4 °F 31% 30.31 in 10.0 mi NW 11.5 mph 18.4 mph N/A   Clear
4:55 PM 55.6 °F - 24.4 °F 30% 30.31 in 10.0 mi NW 11.5 mph - N/A   Clear
5:15 PM 55.0 °F - 24.1 °F 30% 30.31 in 10.0 mi NNW 6.9 mph 16.1 mph N/A   Clear
5:35 PM 55.2 °F - 24.3 °F 30% 30.31 in 10.0 mi NW 9.2 mph - N/A   Clear
5:55 PM 55.0 °F - 23.9 °F 30% 30.31 in 10.0 mi NNW 8.1 mph - N/A   Clear
6:15 PM 54.5 °F - 23.0 °F 29% 30.31 in 10.0 mi NNW 10.4 mph - N/A   Clear
6:35 PM 53.8 °F - 23.4 °F 31% 30.31 in 10.0 mi North 5.8 mph - N/A   Clear
6:55 PM 52.5 °F - 23.5 °F 32% 30.32 in 10.0 mi North 5.8 mph - N/A   Clear
7:15 PM 51.1 °F - 23.5 °F 34% 30.33 in 10.0 mi North 6.9 mph - N/A   Clear
7:35 PM 49.1 °F - 24.1 °F 38% 30.33 in 10.0 mi NNW 3.5 mph - N/A   Clear
7:55 PM 48.6 °F - 25.0 °F 40% 30.34 in 10.0 mi North 4.6 mph - N/A   Clear
8:15 PM 46.8 °F - 27.0 °F 46% 30.34 in 10.0 mi NNW 3.5 mph - N/A   Clear
8:35 PM 45.5 °F 44.2 °F 28.8 °F 52% 30.35 in 10.0 mi NNW 3.5 mph - N/A   Clear
8:55 PM 45.7 °F 43.4 °F 27.7 °F 49% 30.36 in 10.0 mi NNW 4.6 mph - N/A   Clear
9:15 PM 45.0 °F 43.5 °F 28.0 °F 52% 30.36 in 10.0 mi NNW 3.5 mph - N/A   Clear
9:35 PM 45.1 °F - 28.2 °F 52% 30.36 in 10.0 mi Calm Calm - N/A   Clear
9:55 PM 43.0 °F 41.3 °F 29.7 °F 59% 30.37 in 10.0 mi NNW 3.5 mph - N/A   Clear
10:15 PM 44.2 °F - 28.6 °F 54% 30.38 in 10.0 mi Calm Calm - N/A   Clear
10:35 PM 41.5 °F - 31.8 °F 68% 30.39 in 10.0 mi Calm Calm - N/A   Clear
10:55 PM 43.7 °F - 28.6 °F 55% 30.39 in 10.0 mi Calm Calm - N/A   Clear
11:15 PM 44.1 °F 42.5 °F 28.2 °F 54% 30.39 in 10.0 mi NNE 3.5 mph - N/A   Clear
11:35 PM 43.5 °F - 28.4 °F 55% 30.39 in 10.0 mi Calm Calm - N/A   Clear
11:55 PM 43.7 °F 42.1 °F 28.2 °F 54% 30.39 in 10.0 mi NNE 3.5 mph - N/A   Clear